TimePST,TemperatureF,Dew PointF,Humidity,Sea Level PressureIn,VisibilityMPH,Wind Direction,Wind SpeedMPH,Gust SpeedMPH,PrecipitationIn,Events,Conditions,WindDirDegrees,DateUTC
12:58 AM,28.9,28.8,99,30.28,10.0,Calm,Calm,-,N/A,,Clear,0,2013-03-09 08:58:00
1:58 AM,27.7,27.3,99,30.30,9.0,South,3.5,-,N/A,,Clear,170,2013-03-09 09:58:00
2:58 AM,28.0,27.9,99,30.30,9.0,Calm,Calm,-,N/A,,Clear,0,2013-03-09 10:58:00
3:58 AM,29.3,29.1,99,30.32,10.0,South,2.3,-,N/A,,Clear,180,2013-03-09 11:58:00
4:58 AM,28.2,28.0,99,30.34,10.0,Calm,Calm,-,N/A,,Clear,0,2013-03-09 12:58:00
5:58 AM,28.2,27.9,99,30.36,10.0,WSW,2.3,-,N/A,,Clear,240,2013-03-09 13:58:00
6:38 AM,28.4,28.4,100,30.35,2.0,Calm,Calm,-,N/A,,Clear,0,2013-03-09 14:38:00
6:48 AM,26.6,26.6,100,30.36,10.0,Calm,Calm,-,N/A,,Clear,0,2013-03-09 14:48:00
6:58 AM,27.7,27.3,99,30.38,10.0,South,2.3,-,N/A,,Clear,180,2013-03-09 14:58:00
7:24 AM,28.4,28.4,100,30.38,10.0,East,1.2,-,N/A,,Partly Cloudy,100,2013-03-09 15:24:00
7:34 AM,28.4,28.4,100,30.38,10.0,East,2.3,-,N/A,,Mostly Cloudy,80,2013-03-09 15:34:00
7:47 AM,32.0,32.0,100,30.39,10.0,Calm,Calm,-,N/A,,Light Freezing Drizzle,0,2013-03-09 15:47:00
7:58 AM,30.9,30.7,99,30.42,10.0,NNE,2.3,-,0.00,,Light Freezing Drizzle,20,2013-03-09 15:58:00
8:03 AM,32.0,32.0,100,30.41,10.0,North,2.3,-,N/A,,Light Freezing Drizzle,360,2013-03-09 16:03:00
8:04 AM,32.0,32.0,100,30.41,8.0,North,2.3,-,N/A,,Scattered Clouds,10,2013-03-09 16:04:00
8:09 AM,32.0,32.0,100,30.41,2.0,North,2.3,-,N/A,,Scattered Clouds,10,2013-03-09 16:09:00
8:11 AM,32.0,32.0,100,30.41,0.8,North,2.3,-,N/A,,Light Freezing Drizzle,10,2013-03-09 16:11:00
8:16 AM,32.0,32.0,100,30.41,0.5,NNE,1.2,-,N/A,Fog,Light Freezing Drizzle,20,2013-03-09 16:16:00
8:21 AM,32.0,32.0,100,30.41,0.8,Calm,Calm,-,N/A,,Clear,0,2013-03-09 16:21:00
8:26 AM,32.0,32.0,100,30.41,6.0,Calm,Calm,-,N/A,,Clear,0,2013-03-09 16:26:00
8:58 AM,36.9,36.5,99,30.43,10.0,SSE,2.3,-,0.00,,Clear,150,2013-03-09 16:58:00
9:58 AM,42.3,41.9,99,30.44,10.0,Variable,4.6,-,N/A,,Clear,0,2013-03-09 17:58:00
10:58 AM,47.1,39.7,76,30.46,10.0,WNW,6.9,-,N/A,,Clear,290,2013-03-09 18:58:00
11:58 AM,49.6,40.3,70,30.47,10.0,Variable,3.5,-,N/A,,Clear,0,2013-03-09 19:58:00
12:58 PM,51.8,38.5,60,30.46,10.0,South,4.6,-,N/A,,Clear,190,2013-03-09 20:58:00
1:58 PM,54.9,38.1,53,30.45,10.0,Variable,2.3,-,N/A,,Clear,0,2013-03-09 21:58:00
2:58 PM,56.3,38.1,51,30.45,10.0,NNW,3.5,-,N/A,,Clear,340,2013-03-09 22:58:00
3:58 PM,56.7,36.3,47,30.45,10.0,WNW,2.3,-,N/A,,Clear,290,2013-03-09 23:58:00
4:58 PM,55.0,37.4,51,30.45,10.0,NW,4.6,-,N/A,,Clear,320,2013-03-10 00:58:00
5:58 PM,52.0,37.4,58,30.47,10.0,NNW,2.3,-,N/A,,Clear,330,2013-03-10 01:58:00
6:58 PM,49.5,35.6,59,30.49,10.0,Calm,Calm,-,N/A,,Clear,0,2013-03-10 02:58:00
7:58 PM,46.9,35.6,65,30.50,10.0,Variable,3.5,-,N/A,,Clear,0,2013-03-10 03:58:00
8:58 PM,40.1,35.1,82,30.51,10.0,SSE,2.3,-,N/A,,Clear,150,2013-03-10 04:58:00
9:58 PM,36.9,34.3,91,30.52,10.0,South,2.3,-,N/A,,Clear,190,2013-03-10 05:58:00
10:58 PM,35.1,34.7,99,30.52,10.0,Variable,1.2,-,N/A,,Clear,0,2013-03-10 06:58:00
11:58 PM,32.9,32.7,99,30.52,10.0,South,3.5,-,N/A,,Clear,180,2013-03-10 07:58:00